TimeMST,TemperatureF,Dew PointF,Humidity,Sea Level PressureIn,VisibilityMPH,Wind Direction,Wind SpeedMPH,Gust SpeedMPH,PrecipitationIn,Events,Conditions,WindDirDegrees,DateUTC
12:53 AM,16.0,10.0,77,30.21,10.0,NNE,13.8,-,N/A,,Mostly Cloudy,30,2013-02-13 07:53:00
1:53 AM,18.0,10.9,74,30.19,10.0,North,9.2,-,N/A,,Clear,360,2013-02-13 08:53:00
2:53 AM,19.9,14.0,78,30.17,10.0,North,12.7,-,N/A,,Clear,350,2013-02-13 09:53:00
3:53 AM,21.0,14.0,74,30.17,10.0,North,10.4,-,N/A,,Mostly Cloudy,360,2013-02-13 10:53:00
4:53 AM,21.9,15.1,75,30.17,10.0,North,18.4,23.0,N/A,,Partly Cloudy,350,2013-02-13 11:53:00
5:53 AM,21.0,15.1,78,30.19,10.0,North,10.4,-,N/A,,Mostly Cloudy,350,2013-02-13 12:53:00
6:53 AM,19.0,12.9,77,30.21,10.0,Variable,4.6,-,N/A,,Mostly Cloudy,0,2013-02-13 13:53:00
7:53 AM,14.0,9.0,80,30.22,10.0,Calm,Calm,-,N/A,,Clear,0,2013-02-13 14:53:00
8:53 AM,12.9,8.1,81,30.22,10.0,SSW,8.1,-,N/A,,Clear,210,2013-02-13 15:53:00
9:53 AM,17.1,12.0,81,30.24,10.0,SSW,4.6,-,N/A,,Clear,210,2013-02-13 16:53:00
10:53 AM,28.0,19.0,69,30.17,10.0,North,20.7,25.3,N/A,,Clear,360,2013-02-13 17:53:00
11:53 AM,30.0,19.0,64,30.15,10.0,NNW,8.1,-,N/A,,Clear,340,2013-02-13 18:53:00
12:53 PM,32.0,21.0,64,30.13,10.0,Calm,Calm,-,N/A,,Clear,0,2013-02-13 19:53:00
1:53 PM,32.0,21.9,66,30.12,10.0,North,16.1,-,N/A,,Clear,350,2013-02-13 20:53:00
2:53 PM,30.9,21.9,69,30.09,10.0,North,18.4,25.3,N/A,,Clear,350,2013-02-13 21:53:00
3:53 PM,30.0,19.9,66,30.12,10.0,North,19.6,26.5,N/A,,Clear,10,2013-02-13 22:53:00
4:53 PM,30.0,18.0,61,30.13,10.0,NNE,17.3,21.9,N/A,,Overcast,20,2013-02-13 23:53:00
5:53 PM,26.1,17.1,69,30.12,10.0,North,27.6,34.5,N/A,,Clear,350,2013-02-14 00:53:00
6:53 PM,25.0,16.0,69,30.16,10.0,NNW,23.0,28.8,N/A,,Clear,340,2013-02-14 01:53:00
7:53 PM,21.0,14.0,74,30.22,10.0,NE,9.2,-,N/A,,Clear,40,2013-02-14 02:53:00
8:53 PM,24.1,15.1,69,30.20,10.0,NNE,10.4,-,N/A,,Clear,30,2013-02-14 03:53:00
9:53 PM,14.0,9.0,80,30.23,10.0,Calm,Calm,-,N/A,,Clear,0,2013-02-14 04:53:00
10:53 PM,16.0,10.9,81,30.17,10.0,NW,4.6,-,N/A,,Clear,310,2013-02-14 05:53:00
11:53 PM,12.9,9.0,84,30.17,10.0,NNW,5.8,-,N/A,,Partly Cloudy,330,2013-02-14 06:53:00